Regional Weather Roundup
Issued by NWS

Home | Current Version | Previous Version | Graphics & Text | Print | Product List | Glossary On
Versions: 1 2 3 4 5 6 7 8 9 10 11 12 13 14 15 16 17 18 19 20 21 22 23 24 25 26 27 28 29 30 31 32 33 34 35 36 37 38 39 40 41 42 43 44 45 46 47 48 49 50
000
ASUS43 KFSD 270010
RWRSD

WEATHER ROUNDUP FOR SOUTH DAKOTA
NATIONAL WEATHER SERVICE SIOUX FALLS SD
700 PM CDT THU APR 26 2018

NOTE: "FAIR" INDICATES FEW OR NO CLOUDS BELOW 12,000 FEET WITH NO
SIGNIFICANT WEATHER AND/OR OBSTRUCTIONS TO VISIBILITY.


SDZ001>005-009-010-012>017-270100-
NORTHWEST AND NORTH CENTRAL SOUTH DAKOTA

CITY           SKY/WX    TMP DP  RH WIND       PRES   REMARKS
BUFFALO          N/A     64  25  22 NW22      30.04
FAITH            N/A     64  30  27 NW14      30.07F
MOBRIDGE       SUNNY     67  29  24 NW14      30.00F
$$

SDZ012>016-024>037-041>051-057-063-072>074-270100-
SOUTHWEST AND SOUTH CENTRAL SOUTH DAKOTA

CITY           SKY/WX    TMP DP  RH WIND       PRES   REMARKS
RAPID CTY ARPT SUNNY     63  30  28 N17       30.11F
PIERRE         SUNNY     65  23  20 NW16      30.06F
CUSTER         SUNNY     56  19  23 NE5       30.18S
ELLSWORTH AFB  SUNNY     64  29  27 N20       30.10F
PHILIP         SUNNY     66  30  26 N14       30.08F
PINE RIDGE     SUNNY     64  30  27 NW6       30.14F
SPEARFISH      FAIR      61  28  29 W15       30.14F
WINNER         FAIR      64  27  24 N8        30.09F
$$

SDZ004>011-016>023-039-040-270100-
NORTHEAST SOUTH DAKOTA

CITY           SKY/WX    TMP DP  RH WIND       PRES   REMARKS
ABERDEEN       SUNNY     65  26  23 NW20      30.01F
WATERTOWN      SUNNY     58  29  33 N14       30.01F
BROOKINGS      SUNNY     56  32  40 N18       30.03S
SISSETON         N/A     61  30  31 NW14      29.98F
$$

SDZ017-020-022-023-036>040-048>070-270100-
SOUTHEAST SOUTH DAKOTA

CITY           SKY/WX    TMP DP  RH WIND       PRES   REMARKS
SIOUX FALLS    SUNNY     58  29  33 N23G30    30.04R
HURON          SUNNY     63  32  31 NW14      30.03F
CHAMBERLAIN    SUNNY     64  29  27 NW10G16   30.07F
MITCHELL       SUNNY     63  33  32 NW16      30.06F
YANKTON        SUNNY     60  30  32 N20       30.06S
$$

ABBREVIATIONS USED IN REMARKS
   TC - TEMPERATURE IN CELSIUS
  WCI - WIND CHILL INDEX
   HX - HEAT INDEX
  VSB - VISIBILITY





USA.gov is the U.S. government's official web portal to all federal, state and local government web resources and services.